User: anonymous   Login
Location: Unspecified
(0.0000°N, 0.0000°E)
Time: 02:02:24
(UTC+00:00)
Language:

QIANFAN-90 - Orbit

View from above orbital plane
View from above orbital plane
View from above satellite
View from above satellite

Ground track
Ground track

The orbit is defined by the following mean orbital elements,

1 63176U          26145.58577442 +.00000000 +00000-0 +14322-3 0 00001
2 63176  88.9692 303.0271 0013795  19.4485 340.7190 13.51010686    04
Epoch (UTC): 25 May 2026 14:03:30
Eccentricity: 0.0013795
inclination: 88.9692°
perigee height: 1058 km
apogee height: 1079 km
right ascension of ascending node: 303.0271°
argument of perigee: 19.4485°
revolutions per day: 13.51010686
mean anomaly at epoch: 340.7190°

The dashed part of the orbit path shows where the satellite is in the earth's shadow,  

DLR